timestamp,surface_pressure_avg,surface_temp_avg,battery_voltage,lat,long
2020-11-25 00:09:01+00:00,218.4464,6.8,12.65,47.84626,-54.09684
2020-11-25 00:19:01+00:00,217.3898,6.8,12.57,47.84626,-54.09684
2020-11-25 00:29:01+00:00,209.2914,6.79,12.57,47.84626,-54.09684
2020-11-25 00:39:01+00:00,208.0881,6.8,12.57,47.84626,-54.09684
2020-11-25 00:49:01+00:00,209.6648,6.8,12.57,47.84626,-54.09684
2020-11-25 00:59:01+00:00,204.8498,6.8,12.57,47.84626,-54.09684
2020-11-25 01:09:01+00:00,201.3448,6.8,12.57,47.84626,-54.09684
2020-11-25 01:19:01+00:00,202.4281,6.77,12.57,47.84626,-54.09684
2020-11-25 01:29:01+00:00,205.8315,6.77,12.57,47.84626,-54.09684
2020-11-25 01:39:01+00:00,200.3564,6.76,12.57,47.84626,-54.09684
2020-11-25 01:49:01+00:00,192.3181,6.7,12.57,47.84626,-54.09684
2020-11-25 01:59:01+00:00,198.1581,6.73,12.57,47.84626,-54.09684
2020-11-25 02:09:01+00:00,200.2914,6.7,12.57,47.84626,-54.09684
2020-11-25 02:19:01+00:00,189.6114,6.7,12.57,47.84626,-54.09684
2020-11-25 02:29:01+00:00,190.1281,6.7,12.57,47.84626,-54.09684
2020-11-25 02:39:01+00:00,201.9948,6.7,12.57,47.84626,-54.09684
2020-11-25 02:49:01+00:00,201.7631,6.7,12.57,47.84626,-54.09684
2020-11-25 02:59:01+00:00,202.3631,6.66,12.57,47.84626,-54.09684
2020-11-25 03:09:01+00:00,214.3464,6.66,12.57,47.84626,-54.09684
2020-11-25 03:19:01+00:00,222.4514,6.6,12.57,47.84626,-54.09684
2020-11-25 03:29:01+00:00,219.6431,6.6,12.57,47.84626,-54.09684
2020-11-25 03:39:01+00:00,218.7848,6.6,12.57,47.84626,-54.09684
2020-11-25 03:49:01+00:00,224.0648,6.6,12.57,47.84626,-54.09684
2020-11-25 03:59:01+00:00,228.3748,6.6,12.57,47.84626,-54.09684
2020-11-25 04:09:01+00:00,228.7381,6.6,12.57,47.84626,-54.09684
2020-11-25 04:19:01+00:00,231.0231,6.6,12.57,47.84626,-54.09684
2020-11-25 04:29:01+00:00,237.6364,6.6,12.57,47.84626,-54.09684
2020-11-25 04:39:01+00:00,243.6747,6.6,12.57,47.84626,-54.09684
2020-11-25 04:49:01+00:00,245.1331,6.6,12.57,47.84626,-54.09684
2020-11-25 04:59:01+00:00,247.5364,6.6,12.57,47.84626,-54.09684
2020-11-25 05:09:01+00:00,253.6831,6.6,12.57,47.84626,-54.09684
2020-11-25 05:19:01+00:00,259.1697,6.6,12.57,47.84626,-54.09684
2020-11-25 05:29:01+00:00,261.718,6.6,12.57,47.84626,-54.09684
2020-11-25 05:39:01+00:00,267.0931,6.61,12.57,47.84626,-54.09684
2020-11-25 05:49:01+00:00,272.0781,6.6,12.57,47.84626,-54.09684
2020-11-25 05:59:01+00:00,278.3848,6.6,12.57,47.84626,-54.09684
2020-11-25 06:09:01+00:00,282.8381,6.6,12.57,47.84626,-54.09684
2020-11-25 06:19:01+00:00,285.5381,6.6,12.49,47.84626,-54.09684
2020-11-25 06:29:01+00:00,291.7514,6.6,12.49,47.84626,-54.09684
2020-11-25 06:39:01+00:00,299.2646,6.6,12.49,47.84626,-54.09684
2020-11-25 06:49:01+00:00,299.093,6.57,12.49,47.84626,-54.09684
2020-11-25 06:59:01+00:00,297.8864,6.5,12.49,47.84626,-54.09684
2020-11-25 07:09:01+00:00,306.7463,6.5,12.49,47.84626,-54.09684
2020-11-25 07:19:01+00:00,310.1364,6.5,12.49,47.84626,-54.09684
2020-11-25 07:29:01+00:00,303.9414,6.49,12.49,47.84626,-54.09684
2020-11-25 07:39:01+00:00,304.1863,6.48,12.49,47.84626,-54.09684
2020-11-25 07:49:01+00:00,310.8729,6.47,12.49,47.84626,-54.09684
2020-11-25 07:59:01+00:00,310.7547,6.46,12.49,47.84626,-54.09684
2020-11-25 08:09:01+00:00,304.4063,6.4,12.49,47.84626,-54.09684
2020-11-25 08:19:01+00:00,310.728,6.4,12.49,47.84626,-54.09684
2020-11-25 08:29:01+00:00,321.7813,6.4,12.49,47.84626,-54.09684
2020-11-25 08:39:01+00:00,317.248,6.4,12.49,47.84626,-54.09684
2020-11-25 08:49:01+00:00,310.003,6.37,12.49,47.84626,-54.09684
2020-11-25 08:59:01+00:00,322.6163,6.3,12.49,47.84626,-54.09684
2020-11-25 09:09:01+00:00,335.0812,6.0,12.49,47.84626,-54.09684
2020-11-25 09:19:01+00:00,325.3513,6.14,12.49,47.84626,-54.09684
2020-11-25 09:29:01+00:00,323.5881,6.28,12.49,47.84626,-54.09684
2020-11-25 09:39:01+00:00,334.61800000000005,6.32,12.49,47.84626,-54.09684
2020-11-25 09:49:01+00:00,336.023,6.4,12.49,47.84626,-54.09684
2020-11-25 09:59:01+00:00,326.948,6.4,12.49,47.84626,-54.09684
2020-11-25 10:09:01+00:00,328.5863,6.4,12.49,47.84626,-54.09684
2020-11-25 10:19:01+00:00,334.3046,6.44,12.41,47.84626,-54.09684
2020-11-25 10:29:01+00:00,331.1646,6.48,12.41,47.84626,-54.09684
2020-11-25 10:39:01+00:00,325.6879,6.49,12.41,47.84626,-54.09684
2020-11-25 10:49:01+00:00,317.468,6.47,12.41,47.84626,-54.09684
2020-11-25 10:59:01+00:00,312.1014,6.4,12.41,47.84626,-54.09684
2020-11-25 11:09:01+00:00,310.6481,6.4,12.41,47.84626,-54.09684
2020-11-25 11:19:01+00:00,307.4398,6.4,12.41,47.84626,-54.09684
2020-11-25 11:29:01+00:00,301.6497,6.4,12.41,47.84626,-54.09684
2020-11-25 11:39:01+00:00,299.5063,6.49,12.41,47.84626,-54.09684
2020-11-25 11:49:01+00:00,299.293,6.5,12.41,47.84626,-54.09684
2020-11-25 11:59:01+00:00,298.9263,6.44,12.41,47.84626,-54.09684
2020-11-25 12:09:01+00:00,296.9597,6.42,12.41,47.84626,-54.09684
2020-11-25 12:19:01+00:00,292.188,6.49,14.08,47.84626,-54.09684
2020-11-25 12:29:01+00:00,287.9913,6.5,14.08,47.84626,-54.09684
2020-11-25 12:39:01+00:00,280.6847,6.58,14.08,47.84626,-54.09684
2020-11-25 12:49:01+00:00,271.3997,6.41,14.08,47.84626,-54.09684
2020-11-25 12:59:01+00:00,270.5131,6.2,14.08,47.84626,-54.09684
2020-11-25 13:09:01+00:00,272.3497,6.1,14.08,47.84626,-54.09684
2020-11-25 13:19:01+00:00,264.1864,6.2,14.64,47.84626,-54.09684
2020-11-25 13:29:01+00:00,257.1264,6.43,14.64,47.84626,-54.09684
2020-11-25 13:39:01+00:00,260.0281,6.56,14.64,47.84626,-54.09684
2020-11-25 13:49:01+00:00,254.6197,6.5,14.64,47.84626,-54.09684
2020-11-25 13:59:01+00:00,243.9331,6.4,14.64,47.84626,-54.09684
2020-11-25 14:09:01+00:00,245.3581,6.3,14.64,47.84626,-54.09684
2020-11-25 14:19:01+00:00,251.1198,6.34,14.8,47.84626,-54.09684
2020-11-25 14:29:01+00:00,253.4998,6.51,14.8,47.84626,-54.09684
2020-11-25 14:39:01+00:00,256.4897,6.6,14.8,47.84626,-54.09684
2020-11-25 14:49:01+00:00,260.8514,6.6,14.8,47.84626,-54.09684
2020-11-25 14:59:01+00:00,260.8481,6.6,14.8,47.84626,-54.09684
2020-11-25 15:09:01+00:00,256.9281,6.6,14.8,47.84626,-54.09684
2020-11-25 15:19:01+00:00,261.8097,6.6,14.72,47.84626,-54.09684
2020-11-25 15:29:01+00:00,272.5031,6.6,14.72,47.84626,-54.09684
2020-11-25 15:39:01+00:00,277.563,6.39,14.72,47.84626,-54.09684
2020-11-25 15:49:01+00:00,276.9813,6.4,14.72,47.84626,-54.09684
2020-11-25 15:59:01+00:00,285.0364,6.45,14.72,47.84626,-54.09684
2020-11-25 16:09:01+00:00,288.0264,6.4,14.72,47.84626,-54.09684
2020-11-25 16:19:01+00:00,286.0131,6.3,14.64,47.84626,-54.09684
2020-11-25 16:29:01+00:00,290.2281,6.2,14.64,47.84626,-54.09684
2020-11-25 16:39:01+00:00,299.0463,6.21,14.64,47.84626,-54.09684
2020-11-25 16:49:01+00:00,300.6631,6.23,14.64,47.84626,-54.09684
2020-11-25 16:59:01+00:00,297.5013,6.26,14.64,47.84626,-54.09684
2020-11-25 17:09:01+00:00,303.6247,6.3,14.64,47.84626,-54.09684
2020-11-25 17:19:01+00:00,302.5997,6.4,14.48,47.84626,-54.09684
2020-11-25 17:29:01+00:00,300.598,6.45,14.48,47.84626,-54.09684
2020-11-25 17:39:01+00:00,303.4529,6.4,14.48,47.84626,-54.09684
2020-11-25 17:49:01+00:00,308.948,6.5,14.48,47.84626,-54.09684
2020-11-25 17:59:01+00:00,310.4213,6.6,14.48,47.84626,-54.09684
2020-11-25 18:09:01+00:00,319.6512,6.5,14.48,47.84626,-54.09684
2020-11-25 18:19:01+00:00,327.5247,6.4,14.24,47.84626,-54.09684
2020-11-25 18:29:01+00:00,326.033,6.34,14.24,47.84626,-54.09684
2020-11-25 18:39:01+00:00,328.7563,6.5,14.24,47.84626,-54.09684
2020-11-25 18:49:01+00:00,340.7812,6.54,14.24,47.84626,-54.09684
2020-11-25 18:59:01+00:00,343.4297,6.59,14.24,47.84626,-54.09684
2020-11-25 19:09:01+00:00,342.1330000000001,6.6,14.24,47.84626,-54.09684
2020-11-25 19:19:01+00:00,344.5846,6.63,13.76,47.84626,-54.09684
2020-11-25 19:29:01+00:00,346.783,6.6,13.76,47.84626,-54.09684
2020-11-25 19:39:01+00:00,343.3063,6.6,13.76,47.84626,-54.09684
2020-11-25 19:49:01+00:00,343.3796,6.59,13.76,47.84626,-54.09684
2020-11-25 19:59:01+00:00,352.2297,6.59,13.76,47.84626,-54.09684
2020-11-25 20:09:01+00:00,355.2479,6.53,13.76,47.84626,-54.09684
2020-11-25 20:19:01+00:00,347.2713,6.5,13.37,47.84626,-54.09684
2020-11-25 20:29:01+00:00,351.3146,6.54,13.37,47.84626,-54.09684
2020-11-25 20:39:01+00:00,357.9029,6.5,13.37,47.84626,-54.09684
2020-11-25 20:49:01+00:00,351.2546,6.53,13.37,47.84626,-54.09684
2020-11-25 20:59:01+00:00,347.5829,6.6,13.37,47.84626,-54.09684
2020-11-25 21:09:01+00:00,353.2196,6.6,13.37,47.84626,-54.09684
2020-11-25 21:19:01+00:00,353.8929,6.6,12.97,47.84626,-54.09684
2020-11-25 21:29:01+00:00,348.7996,6.62,12.97,47.84626,-54.09684
2020-11-25 21:39:01+00:00,348.0929,6.65,12.97,47.84626,-54.09684
2020-11-25 21:49:01+00:00,352.1779,6.6,12.97,47.84626,-54.09684
2020-11-25 21:59:01+00:00,351.7047,6.69,12.97,47.84626,-54.09684
2020-11-25 22:09:01+00:00,350.1363,6.78,12.97,47.84626,-54.09684
2020-11-25 22:19:01+00:00,344.9496,6.8,12.73,47.84626,-54.09684
2020-11-25 22:29:01+00:00,344.0197,6.8,12.73,47.84626,-54.09684
2020-11-25 22:39:01+00:00,339.3513,6.8,12.73,47.84626,-54.09684
2020-11-25 22:49:01+00:00,327.4264,6.77,12.73,47.84626,-54.09684
2020-11-25 22:59:01+00:00,317.0597,6.7,12.73,47.84626,-54.09684
2020-11-25 23:09:01+00:00,313.2114,6.7,12.73,47.84626,-54.09684
2020-11-25 23:19:01+00:00,307.4413,6.7,12.65,47.84626,-54.09684
2020-11-25 23:29:01+00:00,299.0297,6.8,12.65,47.84626,-54.09684
2020-11-25 23:39:01+00:00,287.0164,6.8,12.65,47.84626,-54.09684
2020-11-25 23:49:01+00:00,282.2297,6.8,12.65,47.84626,-54.09684
2020-11-25 23:59:01+00:00,272.8814,6.77,12.65,47.84626,-54.09684
